Time,TemperatureF,DewpointF,PressureIn,WindDirection,WindDirectionDegrees,WindSpeedMPH,WindSpeedGustMPH,Humidity,HourlyPrecipIn,Conditions,Clouds,dailyrainin,SoftwareType,DateUTC
2013-03-16 00:00:00,49.2,36.3,29.92,South,187,0.0,0.0,61,0.00,,,0.00,Wunderground v.1.15,2013-03-16 04:00:00,
2013-03-16 00:05:00,49.1,36.2,29.92,South,187,0.0,0.0,61,0.00,,,0.00,Wunderground v.1.15,2013-03-16 04:05:00,
2013-03-16 00:10:00,48.9,36.0,29.91,South,187,0.0,0.0,61,0.00,,,0.00,Wunderground v.1.15,2013-03-16 04:10:00,
2013-03-16 00:15:00,48.7,35.8,29.91,South,187,0.0,0.0,61,0.00,,,0.00,Wunderground v.1.15,2013-03-16 04:15:00,
2013-03-16 00:20:00,48.6,36.2,29.91,South,187,0.0,0.0,62,0.00,,,0.00,Wunderground v.1.15,2013-03-16 04:20:00,
2013-03-16 00:30:00,48.3,36.3,29.91,South,187,0.0,0.0,63,0.00,,,0.00,Wunderground v.1.15,2013-03-16 04:30:00,
2013-03-16 00:40:00,47.9,35.9,29.91,South,187,0.0,0.0,63,0.00,,,0.00,Wunderground v.1.15,2013-03-16 04:40:00,
2013-03-16 00:50:00,47.7,36.1,29.90,South,187,0.0,0.0,64,0.00,,,0.00,Wunderground v.1.15,2013-03-16 04:50:00,
2013-03-16 00:55:00,47.5,35.9,29.90,South,187,0.0,0.0,64,0.00,,,0.00,Wunderground v.1.15,2013-03-16 04:55:00,
2013-03-16 01:00:00,47.4,36.2,29.90,South,187,0.0,0.0,65,0.00,,,0.00,Wunderground v.1.15,2013-03-16 05:00:00,
2013-03-16 01:10:00,47.2,36.0,29.90,South,187,0.0,0.0,65,0.00,,,0.00,Wunderground v.1.15,2013-03-16 05:10:00,
2013-03-16 01:20:00,46.9,36.1,29.89,South,187,0.0,0.0,66,0.00,,,0.00,Wunderground v.1.15,2013-03-16 05:20:00,
2013-03-16 01:25:00,46.8,36.0,29.89,South,187,0.0,0.0,66,0.00,,,0.00,Wunderground v.1.15,2013-03-16 05:25:00,
2013-03-16 01:30:00,46.7,35.9,29.89,South,187,0.0,0.0,66,0.00,,,0.00,Wunderground v.1.15,2013-03-16 05:30:00,
2013-03-16 01:35:00,46.7,35.9,29.89,South,187,0.0,0.0,66,0.00,,,0.00,Wunderground v.1.15,2013-03-16 05:35:00,
2013-03-16 01:40:00,46.7,35.9,29.89,South,187,0.0,0.0,66,0.00,,,0.00,Wunderground v.1.15,2013-03-16 05:40:00,
2013-03-16 01:45:00,46.8,36.0,29.88,South,187,0.0,0.0,66,0.00,,,0.00,Wunderground v.1.15,2013-03-16 05:45:00,
2013-03-16 01:50:00,46.9,36.1,29.89,South,187,0.0,0.0,66,0.00,,,0.00,Wunderground v.1.15,2013-03-16 05:50:00,
2013-03-16 01:55:00,46.9,36.1,29.88,South,187,0.0,0.0,66,0.00,,,0.00,Wunderground v.1.15,2013-03-16 05:55:00,
2013-03-16 02:00:00,46.9,36.1,29.88,South,187,0.0,0.0,66,0.00,,,0.00,Wunderground v.1.15,2013-03-16 06:00:00,
2013-03-16 02:05:00,46.8,36.0,29.88,South,187,0.0,0.0,66,0.00,,,0.00,Wunderground v.1.15,2013-03-16 06:05:00,
2013-03-16 02:10:00,46.7,35.9,29.88,South,187,0.0,0.0,66,0.00,,,0.00,Wunderground v.1.15,2013-03-16 06:10:00,
2013-03-16 02:15:00,46.8,36.4,29.88,South,187,0.0,0.0,67,0.00,,,0.00,Wunderground v.1.15,2013-03-16 06:15:00,
2013-03-16 02:20:00,46.8,36.4,29.88,South,187,0.0,0.0,67,0.00,,,0.00,Wunderground v.1.15,2013-03-16 06:20:00,
2013-03-16 02:25:00,46.9,36.1,29.88,South,187,0.0,0.0,66,0.00,,,0.00,Wunderground v.1.15,2013-03-16 06:25:00,
2013-03-16 02:30:00,47.0,36.2,29.87,South,187,0.0,0.0,66,0.00,,,0.00,Wunderground v.1.15,2013-03-16 06:30:00,
2013-03-16 02:35:00,47.0,36.6,29.88,South,187,0.0,0.0,67,0.00,,,0.00,Wunderground v.1.15,2013-03-16 06:35:00,
2013-03-16 02:40:00,47.0,36.6,29.88,South,187,0.0,0.0,67,0.00,,,0.00,Wunderground v.1.15,2013-03-16 06:40:00,
2013-03-16 02:45:00,47.1,36.7,29.87,South,187,0.0,0.0,67,0.00,,,0.00,Wunderground v.1.15,2013-03-16 06:45:00,
2013-03-16 02:50:00,47.2,36.8,29.87,South,187,0.0,0.0,67,0.00,,,0.00,Wunderground v.1.15,2013-03-16 06:50:00,
2013-03-16 02:55:00,47.3,36.9,29.87,South,187,0.0,0.0,67,0.00,,,0.00,Wunderground v.1.15,2013-03-16 06:55:00,
2013-03-16 03:00:00,47.4,37.0,29.87,South,187,0.0,0.0,67,0.00,,,0.00,Wunderground v.1.15,2013-03-16 07:00:00,
2013-03-16 03:05:00,47.4,37.0,29.87,South,187,0.0,0.0,67,0.00,,,0.00,Wunderground v.1.15,2013-03-16 07:05:00,
2013-03-16 03:10:00,47.4,37.0,29.86,South,187,0.0,0.0,67,0.00,,,0.00,Wunderground v.1.15,2013-03-16 07:10:00,
2013-03-16 03:15:00,47.3,36.9,29.86,South,187,0.0,0.0,67,0.00,,,0.00,Wunderground v.1.15,2013-03-16 07:15:00,
2013-03-16 03:20:00,47.2,37.2,29.86,South,187,0.0,0.0,68,0.00,,,0.00,Wunderground v.1.15,2013-03-16 07:20:00,
2013-03-16 03:30:00,47.1,37.1,29.86,South,187,0.0,0.0,68,0.00,,,0.00,Wunderground v.1.15,2013-03-16 07:30:00,
2013-03-16 03:35:00,47.0,37.0,29.86,West,259,0.0,1.0,68,0.00,,,0.00,Wunderground v.1.15,2013-03-16 07:35:00,
2013-03-16 03:40:00,47.0,37.4,29.85,West,259,0.0,0.0,69,0.00,,,0.00,Wunderground v.1.15,2013-03-16 07:40:00,
2013-03-16 03:45:00,47.2,37.5,29.85,West,259,0.0,0.0,69,0.00,,,0.00,Wunderground v.1.15,2013-03-16 07:45:00,
2013-03-16 03:50:00,47.3,37.6,29.85,West,259,0.0,0.0,69,0.00,,,0.00,Wunderground v.1.15,2013-03-16 07:50:00,
2013-03-16 03:55:00,47.3,37.6,29.85,West,259,0.0,0.0,69,0.00,,,0.00,Wunderground v.1.15,2013-03-16 07:55:00,
2013-03-16 04:00:00,47.3,37.6,29.84,West,259,0.0,0.0,69,0.00,,,0.00,Wunderground v.1.15,2013-03-16 08:00:00,
2013-03-16 04:05:00,47.2,37.5,29.84,West,259,0.0,0.0,69,0.00,,,0.00,Wunderground v.1.15,2013-03-16 08:05:00,
2013-03-16 04:10:00,47.2,37.5,29.84,West,259,0.0,0.0,69,0.00,,,0.00,Wunderground v.1.15,2013-03-16 08:10:00,
2013-03-16 04:15:00,47.1,37.8,29.84,West,259,0.0,0.0,70,0.00,,,0.00,Wunderground v.1.15,2013-03-16 08:15:00,
2013-03-16 04:20:00,47.0,37.7,29.84,West,259,0.0,0.0,70,0.00,,,0.00,Wunderground v.1.15,2013-03-16 08:20:00,
2013-03-16 04:25:00,46.9,37.6,29.83,West,259,0.0,0.0,70,0.00,,,0.00,Wunderground v.1.15,2013-03-16 08:25:00,
2013-03-16 04:30:00,46.7,37.8,29.84,West,259,0.0,0.0,71,0.00,,,0.00,Wunderground v.1.15,2013-03-16 08:30:00,
2013-03-16 04:35:00,46.7,37.8,29.84,West,259,0.0,0.0,71,0.00,,,0.00,Wunderground v.1.15,2013-03-16 08:35:00,
2013-03-16 04:40:00,46.7,38.1,29.83,West,259,0.0,0.0,72,0.00,,,0.00,Wunderground v.1.15,2013-03-16 08:40:00,
2013-03-16 04:50:00,46.9,38.3,29.83,SSE,163,0.0,0.0,72,0.00,,,0.00,Wunderground v.1.15,2013-03-16 08:50:00,
2013-03-16 05:00:00,47.1,38.5,29.83,South,170,0.0,0.0,72,0.00,,,0.00,Wunderground v.1.15,2013-03-16 09:00:00,
2013-03-16 05:05:00,47.1,38.5,29.83,South,170,0.0,0.0,72,0.00,,,0.00,Wunderground v.1.15,2013-03-16 09:05:00,
2013-03-16 05:10:00,47.2,38.6,29.83,South,170,0.0,0.0,72,0.00,,,0.00,Wunderground v.1.15,2013-03-16 09:10:00,
2013-03-16 05:20:00,47.1,38.5,29.83,South,170,0.0,0.0,72,0.00,,,0.00,Wunderground v.1.15,2013-03-16 09:20:00,
2013-03-16 05:30:00,47.1,38.9,29.83,South,170,0.0,0.0,73,0.00,,,0.00,Wunderground v.1.15,2013-03-16 09:30:00,
2013-03-16 05:40:00,47.1,38.9,29.83,SSE,163,0.0,0.0,73,0.00,,,0.00,Wunderground v.1.15,2013-03-16 09:40:00,
2013-03-16 05:50:00,47.0,38.8,29.84,SSE,163,0.0,0.0,73,0.00,,,0.00,Wunderground v.1.15,2013-03-16 09:50:00,
2013-03-16 05:55:00,47.1,38.9,29.84,SSE,163,0.0,0.0,73,0.00,,,0.00,Wunderground v.1.15,2013-03-16 09:55:00,
2013-03-16 06:00:00,47.1,38.9,29.84,SSE,163,0.0,0.0,73,0.00,,,0.00,Wunderground v.1.15,2013-03-16 10:00:00,
2013-03-16 06:05:00,47.1,39.2,29.84,SSE,163,0.0,0.0,74,0.00,,,0.00,Wunderground v.1.15,2013-03-16 10:05:00,
2013-03-16 06:10:00,47.2,39.3,29.84,SSE,163,0.0,0.0,74,0.00,,,0.00,Wunderground v.1.15,2013-03-16 10:10:00,
2013-03-16 06:15:00,47.2,39.3,29.84,SSE,163,0.0,0.0,74,0.00,,,0.00,Wunderground v.1.15,2013-03-16 10:15:00,
2013-03-16 06:20:00,47.2,39.3,29.84,SSE,163,0.0,0.0,74,0.00,,,0.00,Wunderground v.1.15,2013-03-16 10:20:00,
2013-03-16 06:25:00,47.3,39.4,29.84,SSE,163,0.0,0.0,74,0.00,,,0.00,Wunderground v.1.15,2013-03-16 10:25:00,
2013-03-16 06:30:00,47.3,39.4,29.84,SSE,163,0.0,0.0,74,0.00,,,0.00,Wunderground v.1.15,2013-03-16 10:30:00,
2013-03-16 06:35:00,47.3,39.4,29.85,SSE,163,0.0,0.0,74,0.00,,,0.00,Wunderground v.1.15,2013-03-16 10:35:00,
2013-03-16 06:40:00,47.3,39.4,29.85,SSE,163,0.0,0.0,74,0.00,,,0.00,Wunderground v.1.15,2013-03-16 10:40:00,
2013-03-16 06:45:00,47.3,39.4,29.85,SSE,163,0.0,0.0,74,0.00,,,0.00,Wunderground v.1.15,2013-03-16 10:45:00,
2013-03-16 06:50:00,47.4,39.9,29.85,SSE,164,0.0,0.0,75,0.00,,,0.00,Wunderground v.1.15,2013-03-16 10:50:00,
2013-03-16 06:55:00,47.4,39.5,29.85,SSE,164,0.0,0.0,74,0.00,,,0.00,Wunderground v.1.15,2013-03-16 10:55:00,
2013-03-16 07:00:00,47.6,39.7,29.84,SSE,164,0.0,0.0,74,0.00,,,0.00,Wunderground v.1.15,2013-03-16 11:00:00,
2013-03-16 07:05:00,47.6,39.7,29.84,SSE,164,0.0,0.0,74,0.00,,,0.00,Wunderground v.1.15,2013-03-16 11:05:00,
2013-03-16 07:10:00,47.6,40.1,29.84,SSE,164,0.0,0.0,75,0.00,,,0.00,Wunderground v.1.15,2013-03-16 11:10:00,
2013-03-16 07:15:00,47.6,40.1,29.84,SSE,164,0.0,0.0,75,0.00,,,0.00,Wunderground v.1.15,2013-03-16 11:15:00,
2013-03-16 07:20:00,47.6,40.1,29.84,SSE,164,0.0,0.0,75,0.00,,,0.00,Wunderground v.1.15,2013-03-16 11:20:00,
2013-03-16 07:25:00,47.6,40.1,29.84,SSE,164,0.0,0.0,75,0.00,,,0.00,Wunderground v.1.15,2013-03-16 11:25:00,
2013-03-16 07:30:00,47.7,40.2,29.84,SSE,164,0.0,0.0,75,0.00,,,0.00,Wunderground v.1.15,2013-03-16 11:30:00,
2013-03-16 07:40:00,47.9,40.4,29.83,SSE,164,0.0,0.0,75,0.00,,,0.00,Wunderground v.1.15,2013-03-16 11:40:00,
2013-03-16 07:45:00,48.1,40.5,29.83,SSE,164,0.0,0.0,75,0.00,,,0.00,Wunderground v.1.15,2013-03-16 11:45:00,
2013-03-16 07:50:00,48.3,40.7,29.83,SSE,164,0.0,0.0,75,0.00,,,0.00,Wunderground v.1.15,2013-03-16 11:50:00,
2013-03-16 07:55:00,48.6,41.0,29.83,SSE,164,0.0,0.0,75,0.00,,,0.00,Wunderground v.1.15,2013-03-16 11:55:00,
2013-03-16 08:00:00,48.9,41.3,29.83,SSE,164,0.0,0.0,75,0.00,,,0.00,Wunderground v.1.15,2013-03-16 12:00:00,
2013-03-16 08:05:00,49.2,41.6,29.83,SSE,167,0.0,0.0,75,0.00,,,0.00,Wunderground v.1.15,2013-03-16 12:05:00,
2013-03-16 08:10:00,49.6,41.7,29.83,South,173,0.0,0.0,74,0.00,,,0.00,Wunderground v.1.15,2013-03-16 12:10:00,
2013-03-16 08:15:00,49.8,41.8,29.83,South,173,0.0,0.0,74,0.00,,,0.00,Wunderground v.1.15,2013-03-16 12:15:00,
2013-03-16 08:20:00,50.2,42.2,29.83,South,173,0.0,0.0,74,0.00,,,0.00,Wunderground v.1.15,2013-03-16 12:20:00,
2013-03-16 08:25:00,50.5,42.2,29.84,South,173,0.0,0.0,73,0.00,,,0.00,Wunderground v.1.15,2013-03-16 12:25:00,
2013-03-16 08:30:00,50.8,42.5,29.84,West,272,0.0,0.0,73,0.00,,,0.00,Wunderground v.1.15,2013-03-16 12:30:00,
2013-03-16 08:35:00,51.0,42.6,29.84,West,272,0.0,0.0,73,0.00,,,0.00,Wunderground v.1.15,2013-03-16 12:35:00,
2013-03-16 08:40:00,51.4,43.0,29.84,West,265,0.0,0.0,73,0.00,,,0.00,Wunderground v.1.15,2013-03-16 12:40:00,
2013-03-16 08:45:00,51.7,43.3,29.84,West,265,0.0,0.0,73,0.00,,,0.00,Wunderground v.1.15,2013-03-16 12:45:00,
2013-03-16 08:50:00,52.1,43.3,29.84,East,97,0.0,0.0,72,0.00,,,0.00,Wunderground v.1.15,2013-03-16 12:50:00,
2013-03-16 08:55:00,52.4,43.6,29.84,SE,140,0.0,0.0,72,0.00,,,0.00,Wunderground v.1.15,2013-03-16 12:55:00,
2013-03-16 09:00:00,52.8,43.7,29.84,SSW,201,0.0,0.0,71,0.00,,,0.00,Wunderground v.1.15,2013-03-16 13:00:00,
2013-03-16 09:05:00,53.2,44.0,29.84,SSW,201,0.0,0.0,71,0.00,,,0.00,Wunderground v.1.15,2013-03-16 13:05:00,
2013-03-16 09:10:00,53.4,43.9,29.84,SSW,201,0.0,0.0,70,0.00,,,0.00,Wunderground v.1.15,2013-03-16 13:10:00,
2013-03-16 09:15:00,53.7,44.1,29.83,SSW,200,0.0,0.0,70,0.00,,,0.00,Wunderground v.1.15,2013-03-16 13:15:00,
2013-03-16 09:20:00,54.2,44.2,29.83,SE,145,0.0,0.0,69,0.00,,,0.00,Wunderground v.1.15,2013-03-16 13:20:00,
2013-03-16 09:25:00,54.6,44.6,29.83,SE,145,0.0,0.0,69,0.00,,,0.00,Wunderground v.1.15,2013-03-16 13:25:00,
2013-03-16 09:30:00,55.0,45.0,29.84,SE,145,0.0,0.0,69,0.00,,,0.00,Wunderground v.1.15,2013-03-16 13:30:00,
2013-03-16 09:35:00,55.3,44.9,29.83,SW,220,0.0,0.0,68,0.00,,,0.00,Wunderground v.1.15,2013-03-16 13:35:00,
2013-03-16 09:40:00,55.7,44.9,29.83,South,183,0.0,0.0,67,0.00,,,0.00,Wunderground v.1.15,2013-03-16 13:40:00,
2013-03-16 09:45:00,56.0,45.2,29.83,SSW,192,0.0,0.0,67,0.00,,,0.00,Wunderground v.1.15,2013-03-16 13:45:00,
2013-03-16 09:50:00,56.3,45.5,29.83,East,90,0.0,0.0,67,0.00,,,0.00,Wunderground v.1.15,2013-03-16 13:50:00,
2013-03-16 09:55:00,56.6,45.4,29.83,SE,142,0.0,0.0,66,0.00,,,0.00,Wunderground v.1.15,2013-03-16 13:55:00,
2013-03-16 10:00:00,56.9,45.7,29.83,SSE,161,0.0,0.0,66,0.00,,,0.00,Wunderground v.1.15,2013-03-16 14:00:00,
2013-03-16 10:05:00,57.3,45.6,29.82,South,181,0.0,0.0,65,0.00,,,0.00,Wunderground v.1.15,2013-03-16 14:05:00,
2013-03-16 10:10:00,57.7,46.0,29.82,SSW,209,0.0,0.0,65,0.00,,,0.00,Wunderground v.1.15,2013-03-16 14:10:00,
2013-03-16 10:15:00,58.1,46.0,29.82,SE,146,0.0,1.0,64,0.00,,,0.00,Wunderground v.1.15,2013-03-16 14:15:00,
2013-03-16 10:20:00,58.7,46.1,29.82,SSW,211,0.0,0.0,63,0.00,,,0.00,Wunderground v.1.15,2013-03-16 14:20:00,
2013-03-16 10:25:00,59.3,46.7,29.82,SSW,212,0.0,0.0,63,0.00,,,0.00,Wunderground v.1.15,2013-03-16 14:25:00,
2013-03-16 10:30:00,59.7,46.7,29.82,SSW,207,0.0,0.0,62,0.00,,,0.00,Wunderground v.1.15,2013-03-16 14:30:00,
2013-03-16 10:35:00,60.0,46.9,29.82,SSW,213,0.0,0.0,62,0.00,,,0.00,Wunderground v.1.15,2013-03-16 14:35:00,
2013-03-16 10:40:00,60.4,46.9,29.82,SSW,202,0.0,0.0,61,0.00,,,0.00,Wunderground v.1.15,2013-03-16 14:40:00,
2013-03-16 10:45:00,61.0,47.0,29.82,SSE,166,0.0,0.0,60,0.00,,,0.00,Wunderground v.1.15,2013-03-16 14:45:00,
2013-03-16 10:50:00,61.5,47.0,29.81,South,191,0.0,1.0,59,0.00,,,0.00,Wunderground v.1.15,2013-03-16 14:50:00,
2013-03-16 10:55:00,62.1,46.7,29.81,South,186,1.0,2.0,57,0.00,,,0.00,Wunderground v.1.15,2013-03-16 14:55:00,
2013-03-16 11:00:00,62.7,47.2,29.81,South,175,2.0,2.0,57,0.00,,,0.00,Wunderground v.1.15,2013-03-16 15:00:00,
2013-03-16 11:05:00,63.3,47.8,29.80,SW,219,1.0,2.0,57,0.00,,,0.00,Wunderground v.1.15,2013-03-16 15:05:00,
2013-03-16 11:10:00,64.0,47.5,29.80,ESE,103,1.0,1.0,55,0.00,,,0.00,Wunderground v.1.15,2013-03-16 15:10:00,
2013-03-16 11:15:00,64.6,47.6,29.80,NE,40,0.0,1.0,54,0.00,,,0.00,Wunderground v.1.15,2013-03-16 15:15:00,
2013-03-16 11:20:00,65.2,47.6,29.79,SSW,202,1.0,1.0,53,0.00,,,0.00,Wunderground v.1.15,2013-03-16 15:20:00,
2013-03-16 11:25:00,65.5,48.4,29.79,SSW,212,2.0,4.0,54,0.00,,,0.00,Wunderground v.1.15,2013-03-16 15:25:00,
2013-03-16 11:30:00,66.1,48.5,29.79,East,90,2.0,7.0,53,0.00,,,0.00,Wunderground v.1.15,2013-03-16 15:30:00,
2013-03-16 11:35:00,66.8,48.1,29.79,SSE,161,2.0,7.0,51,0.00,,,0.00,Wunderground v.1.15,2013-03-16 15:35:00,
2013-03-16 11:40:00,67.4,48.6,29.78,SW,222,2.0,2.0,51,0.00,,,0.00,Wunderground v.1.15,2013-03-16 15:40:00,
2013-03-16 11:45:00,68.3,48.9,29.78,WSW,242,1.0,2.0,50,0.00,,,0.00,Wunderground v.1.15,2013-03-16 15:45:00,
2013-03-16 11:50:00,69.0,48.5,29.78,SW,215,2.0,2.0,48,0.00,,,0.00,Wunderground v.1.15,2013-03-16 15:50:00,
2013-03-16 12:00:00,69.6,47.9,29.77,SSE,166,1.0,4.0,46,0.00,,,0.00,Wunderground v.1.15,2013-03-16 16:00:00,
2013-03-16 12:05:00,70.1,48.4,29.77,South,182,2.0,4.0,46,0.00,,,0.00,Wunderground v.1.15,2013-03-16 16:05:00,
2013-03-16 12:10:00,70.7,47.7,29.77,SW,236,2.0,3.0,44,0.00,,,0.00,Wunderground v.1.15,2013-03-16 16:10:00,
2013-03-16 12:15:00,71.2,47.6,29.77,SSW,211,2.0,3.0,43,0.00,,,0.00,Wunderground v.1.15,2013-03-16 16:15:00,
2013-03-16 12:20:00,71.1,48.1,29.77,SSW,211,3.0,3.0,44,0.00,,,0.00,Wunderground v.1.15,2013-03-16 16:20:00,
2013-03-16 12:25:00,71.0,47.4,29.77,WSW,252,3.0,4.0,43,0.00,,,0.00,Wunderground v.1.15,2013-03-16 16:25:00,
2013-03-16 12:30:00,70.7,47.1,29.77,West,260,4.0,4.0,43,0.00,,,0.00,Wunderground v.1.15,2013-03-16 16:30:00,
2013-03-16 12:35:00,70.7,47.7,29.77,WSW,244,4.0,4.0,44,0.00,,,0.00,Wunderground v.1.15,2013-03-16 16:35:00,
2013-03-16 12:40:00,71.2,48.8,29.77,SSW,198,2.0,2.0,45,0.00,,,0.00,Wunderground v.1.15,2013-03-16 16:40:00,
2013-03-16 12:50:00,71.3,48.3,29.77,SW,219,3.0,3.0,44,0.00,,,0.00,Wunderground v.1.15,2013-03-16 16:50:00,
2013-03-16 12:55:00,71.2,47.6,29.76,NNE,12,2.0,3.0,43,0.00,,,0.00,Wunderground v.1.15,2013-03-16 16:55:00,
2013-03-16 13:00:00,71.0,48.0,29.76,SW,217,3.0,3.0,44,0.00,,,0.00,Wunderground v.1.15,2013-03-16 17:00:00,
2013-03-16 13:05:00,71.2,48.2,29.76,SE,136,3.0,3.0,44,0.00,,,0.00,Wunderground v.1.15,2013-03-16 17:05:00,
2013-03-16 13:10:00,71.5,48.4,29.76,SSW,205,2.0,2.0,44,0.00,,,0.00,Wunderground v.1.15,2013-03-16 17:10:00,
2013-03-16 13:15:00,72.4,48.6,29.75,South,188,2.0,2.0,43,0.00,,,0.00,Wunderground v.1.15,2013-03-16 17:15:00,
2013-03-16 13:20:00,73.2,48.1,29.75,SW,220,3.0,5.0,41,0.00,,,0.00,Wunderground v.1.15,2013-03-16 17:20:00,
2013-03-16 13:25:00,73.3,48.2,29.75,SSW,211,3.0,5.0,41,0.00,,,0.00,Wunderground v.1.15,2013-03-16 17:25:00,
2013-03-16 13:30:00,73.7,48.5,29.75,East,94,3.0,3.0,41,0.00,,,0.00,Wunderground v.1.15,2013-03-16 17:30:00,
2013-03-16 13:35:00,74.1,48.9,29.75,SSW,203,3.0,3.0,41,0.00,,,0.00,Wunderground v.1.15,2013-03-16 17:35:00,
2013-03-16 13:40:00,74.2,48.3,29.75,SSW,213,3.0,3.0,40,0.00,,,0.00,Wunderground v.1.15,2013-03-16 17:40:00,
2013-03-16 13:45:00,74.6,48.7,29.74,SSE,161,3.0,4.0,40,0.00,,,0.00,Wunderground v.1.15,2013-03-16 17:45:00,
2013-03-16 13:50:00,74.8,48.2,29.74,SW,222,3.0,3.0,39,0.00,,,0.00,Wunderground v.1.15,2013-03-16 17:50:00,
2013-03-16 13:55:00,75.2,49.2,29.74,WNW,287,3.0,3.0,40,0.00,,,0.00,Wunderground v.1.15,2013-03-16 17:55:00,
2013-03-16 14:00:00,75.2,47.8,29.74,South,173,3.0,4.0,38,0.00,,,0.00,Wunderground v.1.15,2013-03-16 18:00:00,
2013-03-16 14:05:00,74.8,48.9,29.74,West,277,3.0,4.0,40,0.00,,,0.00,Wunderground v.1.15,2013-03-16 18:05:00,
2013-03-16 14:10:00,74.7,48.1,29.74,South,177,2.0,6.0,39,0.00,,,0.00,Wunderground v.1.15,2013-03-16 18:10:00,
2013-03-16 14:15:00,74.3,48.4,29.73,SW,230,3.0,6.0,40,0.00,,,0.00,Wunderground v.1.15,2013-03-16 18:15:00,
2013-03-16 14:20:00,74.2,48.3,29.73,SW,233,4.0,4.0,40,0.00,,,0.00,Wunderground v.1.15,2013-03-16 18:20:00,
2013-03-16 14:25:00,74.3,48.4,29.73,West,261,3.0,5.0,40,0.00,,,0.00,Wunderground v.1.15,2013-03-16 18:25:00,
2013-03-16 14:30:00,74.3,48.4,29.73,South,178,3.0,4.0,40,0.00,,,0.00,Wunderground v.1.15,2013-03-16 18:30:00,
2013-03-16 14:40:00,74.4,48.5,29.72,South,186,3.0,6.0,40,0.00,,,0.00,Wunderground v.1.15,2013-03-16 18:40:00,
2013-03-16 14:45:00,74.4,48.5,29.72,West,269,3.0,6.0,40,0.00,,,0.00,Wunderground v.1.15,2013-03-16 18:45:00,
2013-03-16 14:50:00,74.5,48.6,29.72,WSW,254,2.0,2.0,40,0.00,,,0.00,Wunderground v.1.15,2013-03-16 18:50:00,
2013-03-16 14:55:00,74.7,48.1,29.71,South,176,2.0,4.0,39,0.00,,,0.00,Wunderground v.1.15,2013-03-16 18:55:00,
2013-03-16 15:00:00,74.8,48.9,29.71,ESE,121,3.0,3.0,40,0.00,,,0.00,Wunderground v.1.15,2013-03-16 19:00:00,
2013-03-16 15:10:00,74.8,48.9,29.71,South,189,1.0,3.0,40,0.00,,,0.00,Wunderground v.1.15,2013-03-16 19:10:00,
2013-03-16 15:20:00,74.8,48.2,29.70,ESE,104,2.0,2.0,39,0.00,,,0.00,Wunderground v.1.15,2013-03-16 19:20:00,
2013-03-16 15:25:00,74.8,48.9,29.70,South,180,2.0,6.0,40,0.00,,,0.00,Wunderground v.1.15,2013-03-16 19:25:00,
2013-03-16 15:30:00,74.8,48.2,29.69,SSW,211,2.0,2.0,39,0.00,,,0.00,Wunderground v.1.15,2013-03-16 19:30:00,
2013-03-16 15:35:00,75.0,49.0,29.69,SSW,213,2.0,2.0,40,0.00,,,0.00,Wunderground v.1.15,2013-03-16 19:35:00,
2013-03-16 15:40:00,75.3,47.9,29.69,WSW,251,1.0,1.0,38,0.00,,,0.00,Wunderground v.1.15,2013-03-16 19:40:00,
2013-03-16 15:50:00,75.6,48.9,29.70,SSE,166,2.0,8.0,39,0.00,,,0.00,Wunderground v.1.15,2013-03-16 19:50:00,
2013-03-16 15:55:00,75.6,48.2,29.69,SW,229,2.0,11.0,38,0.00,,,0.00,Wunderground v.1.15,2013-03-16 19:55:00,
2013-03-16 16:00:00,75.6,48.2,29.69,East,86,3.0,4.0,38,0.00,,,0.00,Wunderground v.1.15,2013-03-16 20:00:00,
2013-03-16 16:05:00,75.5,48.1,29.69,WSW,254,3.0,4.0,38,0.00,,,0.00,Wunderground v.1.15,2013-03-16 20:05:00,
2013-03-16 16:10:00,75.5,48.1,29.69,SSW,193,2.0,3.0,38,0.00,,,0.00,Wunderground v.1.15,2013-03-16 20:10:00,
2013-03-16 16:15:00,75.6,48.2,29.69,South,182,1.0,3.0,38,0.00,,,0.00,Wunderground v.1.15,2013-03-16 20:15:00,
2013-03-16 16:20:00,75.6,48.2,29.68,NNW,338,1.0,1.0,38,0.00,,,0.00,Wunderground v.1.15,2013-03-16 20:20:00,
2013-03-16 16:25:00,75.6,48.2,29.68,SSW,209,2.0,2.0,38,0.00,,,0.00,Wunderground v.1.15,2013-03-16 20:25:00,
2013-03-16 16:30:00,75.6,48.2,29.68,South,188,2.0,4.0,38,0.00,,,0.00,Wunderground v.1.15,2013-03-16 20:30:00,
2013-03-16 16:40:00,75.8,48.4,29.67,South,173,2.0,5.0,38,0.00,,,0.00,Wunderground v.1.15,2013-03-16 20:40:00,
2013-03-16 16:45:00,75.8,47.7,29.67,SW,234,2.0,5.0,37,0.00,,,0.00,Wunderground v.1.15,2013-03-16 20:45:00,
2013-03-16 16:50:00,75.9,48.5,29.67,ESE,119,3.0,3.0,38,0.00,,,0.00,Wunderground v.1.15,2013-03-16 20:50:00,
2013-03-16 16:55:00,75.9,48.5,29.67,SE,128,2.0,3.0,38,0.00,,,0.00,Wunderground v.1.15,2013-03-16 20:55:00,
2013-03-16 17:00:00,76.0,48.6,29.67,SSW,203,2.0,2.0,38,0.00,,,0.00,Wunderground v.1.15,2013-03-16 21:00:00,
2013-03-16 17:05:00,76.4,48.9,29.67,SSE,150,1.0,2.0,38,0.00,,,0.00,Wunderground v.1.15,2013-03-16 21:05:00,
2013-03-16 17:10:00,76.7,48.5,29.66,SSW,209,1.0,3.0,37,0.00,,,0.00,Wunderground v.1.15,2013-03-16 21:10:00,
2013-03-16 17:15:00,76.8,47.8,29.66,SW,222,3.0,3.0,36,0.00,,,0.00,Wunderground v.1.15,2013-03-16 21:15:00,
2013-03-16 17:20:00,76.9,48.6,29.66,South,169,3.0,6.0,37,0.00,,,0.00,Wunderground v.1.15,2013-03-16 21:20:00,
2013-03-16 17:25:00,76.9,48.6,29.66,SW,225,4.0,6.0,37,0.00,,,0.00,Wunderground v.1.15,2013-03-16 21:25:00,
2013-03-16 17:30:00,76.7,47.7,29.66,SSE,153,3.0,5.0,36,0.00,,,0.00,Wunderground v.1.15,2013-03-16 21:30:00,
2013-03-16 17:40:00,76.0,48.6,29.65,SW,219,4.0,4.0,38,0.00,,,0.00,Wunderground v.1.15,2013-03-16 21:40:00,
2013-03-16 17:45:00,75.8,47.7,29.65,SE,131,2.0,4.0,37,0.00,,,0.00,Wunderground v.1.15,2013-03-16 21:45:00,
2013-03-16 17:50:00,75.7,48.3,29.65,SSE,160,1.0,1.0,38,0.00,,,0.00,Wunderground v.1.15,2013-03-16 21:50:00,
2013-03-16 18:00:00,75.5,48.1,29.66,SSE,168,2.0,2.0,38,0.00,,,0.00,Wunderground v.1.15,2013-03-16 22:00:00,
2013-03-16 18:05:00,75.3,47.9,29.66,West,268,2.0,2.0,38,0.00,,,0.00,Wunderground v.1.15,2013-03-16 22:05:00,
2013-03-16 18:10:00,75.2,47.8,29.66,SW,229,2.0,3.0,38,0.00,,,0.00,Wunderground v.1.15,2013-03-16 22:10:00,
2013-03-16 18:15:00,75.2,47.8,29.66,SSW,213,2.0,3.0,38,0.00,,,0.00,Wunderground v.1.15,2013-03-16 22:15:00,
2013-03-16 18:20:00,75.1,47.8,29.67,SW,229,2.0,4.0,38,0.00,,,0.00,Wunderground v.1.15,2013-03-16 22:20:00,
2013-03-16 18:25:00,75.0,47.7,29.66,SSW,211,2.0,4.0,38,0.00,,,0.00,Wunderground v.1.15,2013-03-16 22:25:00,
2013-03-16 18:30:00,74.9,47.6,29.66,SSW,195,1.0,1.0,38,0.00,,,0.00,Wunderground v.1.15,2013-03-16 22:30:00,
2013-03-16 18:35:00,74.7,48.1,29.67,SSE,162,1.0,7.0,39,0.00,,,0.00,Wunderground v.1.15,2013-03-16 22:35:00,
2013-03-16 18:40:00,74.6,48.0,29.67,WSW,239,2.0,5.0,39,0.00,,,0.00,Wunderground v.1.15,2013-03-16 22:40:00,
2013-03-16 18:45:00,74.5,47.2,29.67,SSW,202,2.0,5.0,38,0.00,,,0.00,Wunderground v.1.15,2013-03-16 22:45:00,
2013-03-16 18:50:00,74.4,47.8,29.67,SSW,194,1.0,2.0,39,0.00,,,0.00,Wunderground v.1.15,2013-03-16 22:50:00,
2013-03-16 18:55:00,74.4,47.1,29.67,South,181,1.0,2.0,38,0.00,,,0.00,Wunderground v.1.15,2013-03-16 22:55:00,
2013-03-16 19:00:00,74.3,47.7,29.67,SSW,203,1.0,1.0,39,0.00,,,0.00,Wunderground v.1.15,2013-03-16 23:00:00,
2013-03-16 19:05:00,74.2,47.6,29.67,NE,36,1.0,1.0,39,0.00,,,0.00,Wunderground v.1.15,2013-03-16 23:05:00,
2013-03-16 19:10:00,73.9,47.4,29.67,SW,215,1.0,1.0,39,0.00,,,0.00,Wunderground v.1.15,2013-03-16 23:10:00,
2013-03-16 19:15:00,73.8,47.3,29.68,SW,215,1.0,1.0,39,0.00,,,0.00,Wunderground v.1.15,2013-03-16 23:15:00,
2013-03-16 19:20:00,73.6,47.8,29.68,West,260,2.0,2.0,40,0.00,,,0.00,Wunderground v.1.15,2013-03-16 23:20:00,
2013-03-16 19:25:00,73.4,46.9,29.68,SW,218,2.0,2.0,39,0.00,,,0.00,Wunderground v.1.15,2013-03-16 23:25:00,
2013-03-16 19:30:00,73.3,46.8,29.69,WSW,245,1.0,1.0,39,0.00,,,0.00,Wunderground v.1.15,2013-03-16 23:30:00,
2013-03-16 19:35:00,73.2,46.8,29.70,SW,223,1.0,1.0,39,0.00,,,0.00,Wunderground v.1.15,2013-03-16 23:35:00,
2013-03-16 19:40:00,73.1,46.7,29.71,SSW,213,1.0,1.0,39,0.00,,,0.00,Wunderground v.1.15,2013-03-16 23:40:00,
2013-03-16 19:45:00,72.9,47.2,29.71,SW,232,1.0,1.0,40,0.00,,,0.00,Wunderground v.1.15,2013-03-16 23:45:00,
2013-03-16 19:50:00,72.8,47.1,29.72,West,260,0.0,0.0,40,0.00,,,0.00,Wunderground v.1.15,2013-03-16 23:50:00,
2013-03-16 19:55:00,72.6,47.5,29.73,West,261,0.0,0.0,41,0.00,,,0.00,Wunderground v.1.15,2013-03-16 23:55:00,
2013-03-16 20:00:00,72.5,47.5,29.75,WNW,299,1.0,1.0,41,0.00,,,0.00,Wunderground v.1.15,2013-03-17 00:00:00,
2013-03-16 20:05:00,72.2,50.8,29.76,NE,34,2.0,2.0,47,0.00,,,0.00,Wunderground v.1.15,2013-03-17 00:05:00,
2013-03-16 20:10:00,70.8,53.8,29.76,NW,305,2.0,2.0,55,0.00,,,0.00,Wunderground v.1.15,2013-03-17 00:10:00,
2013-03-16 20:15:00,69.5,54.5,29.76,WSW,256,1.0,2.0,59,0.00,,,0.00,Wunderground v.1.15,2013-03-17 00:15:00,
2013-03-16 20:20:00,68.1,54.1,29.78,WSW,256,1.0,1.0,61,0.00,,,0.00,Wunderground v.1.15,2013-03-17 00:20:00,
2013-03-16 20:25:00,67.5,54.5,29.78,WSW,246,0.0,1.0,63,0.00,,,0.00,Wunderground v.1.15,2013-03-17 00:25:00,
2013-03-16 20:30:00,66.7,55.0,29.77,NNW,333,0.0,0.0,66,0.00,,,0.00,Wunderground v.1.15,2013-03-17 00:30:00,
2013-03-16 20:35:00,66.2,56.5,29.78,West,269,0.0,0.0,71,0.00,,,0.00,Wunderground v.1.15,2013-03-17 00:35:00,
2013-03-16 20:40:00,64.9,56.8,29.79,West,269,0.0,0.0,75,0.00,,,0.00,Wunderground v.1.15,2013-03-17 00:40:00,
2013-03-16 20:45:00,64.0,56.6,29.79,West,269,0.0,0.0,77,0.00,,,0.00,Wunderground v.1.15,2013-03-17 00:45:00,
2013-03-16 20:50:00,63.3,56.3,29.79,West,275,0.0,0.0,78,0.00,,,0.00,Wunderground v.1.15,2013-03-17 00:50:00,
2013-03-16 20:55:00,62.8,56.2,29.79,West,275,0.0,0.0,79,0.00,,,0.00,Wunderground v.1.15,2013-03-17 00:55:00,
2013-03-16 21:00:00,62.5,56.2,29.79,West,275,0.0,0.0,80,0.00,,,0.00,Wunderground v.1.15,2013-03-17 01:00:00,
2013-03-16 21:05:00,62.3,56.0,29.79,West,275,0.0,0.0,80,0.00,,,0.00,Wunderground v.1.15,2013-03-17 01:05:00,
2013-03-16 21:10:00,62.1,55.9,29.80,West,275,0.0,0.0,80,0.00,,,0.00,Wunderground v.1.15,2013-03-17 01:10:00,
2013-03-16 21:15:00,62.0,56.1,29.80,South,170,0.0,1.0,81,0.00,,,0.00,Wunderground v.1.15,2013-03-17 01:15:00,
2013-03-16 21:20:00,62.0,55.8,29.81,South,177,0.0,0.0,80,0.00,,,0.00,Wunderground v.1.15,2013-03-17 01:20:00,
2013-03-16 21:30:00,62.1,55.9,29.81,South,177,0.0,0.0,80,0.00,,,0.00,Wunderground v.1.15,2013-03-17 01:30:00,
2013-03-16 21:35:00,62.1,55.9,29.81,South,177,0.0,0.0,80,0.00,,,0.00,Wunderground v.1.15,2013-03-17 01:35:00,
2013-03-16 21:40:00,62.0,55.8,29.81,SSW,196,0.0,0.0,80,0.00,,,0.00,Wunderground v.1.15,2013-03-17 01:40:00,
2013-03-16 21:45:00,62.0,55.4,29.81,SSW,196,0.0,0.0,79,0.00,,,0.00,Wunderground v.1.15,2013-03-17 01:45:00,
2013-03-16 21:50:00,61.9,55.0,29.81,SSW,196,0.0,0.0,78,0.00,,,0.00,Wunderground v.1.15,2013-03-17 01:50:00,
2013-03-16 21:55:00,61.9,54.6,29.81,SSW,196,0.0,0.0,77,0.00,,,0.00,Wunderground v.1.15,2013-03-17 01:55:00,
2013-03-16 22:00:00,62.0,54.3,29.82,SSW,196,0.0,0.0,76,0.00,,,0.00,Wunderground v.1.15,2013-03-17 02:00:00,
2013-03-16 22:05:00,61.9,54.6,29.81,SSW,196,0.0,0.0,77,0.00,,,0.00,Wunderground v.1.15,2013-03-17 02:05:00,
2013-03-16 22:10:00,61.8,54.5,29.82,SSW,196,0.0,0.0,77,0.00,,,0.00,Wunderground v.1.15,2013-03-17 02:10:00,
2013-03-16 22:15:00,61.6,54.3,29.82,SSW,196,0.0,0.0,77,0.00,,,0.00,Wunderground v.1.15,2013-03-17 02:15:00,
2013-03-16 22:20:00,61.4,54.1,29.82,SSW,196,0.0,0.0,77,0.00,,,0.00,Wunderground v.1.15,2013-03-17 02:20:00,
2013-03-16 22:25:00,61.2,53.9,29.82,SSW,196,0.0,0.0,77,0.00,,,0.00,Wunderground v.1.15,2013-03-17 02:25:00,
2013-03-16 22:30:00,61.1,53.8,29.82,SSW,196,0.0,0.0,77,0.00,,,0.00,Wunderground v.1.15,2013-03-17 02:30:00,
2013-03-16 22:35:00,61.0,54.1,29.82,SSW,196,0.0,0.0,78,0.00,,,0.00,Wunderground v.1.15,2013-03-17 02:35:00,
2013-03-16 22:40:00,60.9,54.0,29.82,SSW,196,0.0,0.0,78,0.00,,,0.00,Wunderground v.1.15,2013-03-17 02:40:00,
2013-03-16 22:45:00,60.9,54.7,29.82,SSW,196,0.0,0.0,80,0.00,,,0.00,Wunderground v.1.15,2013-03-17 02:45:00,
2013-03-16 22:50:00,60.7,54.5,29.82,SSW,196,0.0,0.0,80,0.00,,,0.00,Wunderground v.1.15,2013-03-17 02:50:00,
2013-03-16 22:55:00,60.5,54.3,29.83,SSW,196,0.0,0.0,80,0.00,,,0.00,Wunderground v.1.15,2013-03-17 02:55:00,
2013-03-16 23:00:00,60.3,53.8,29.82,SSW,196,0.0,0.0,79,0.00,,,0.00,Wunderground v.1.15,2013-03-17 03:00:00,
2013-03-16 23:05:00,60.3,53.8,29.82,SSW,196,0.0,0.0,79,0.00,,,0.00,Wunderground v.1.15,2013-03-17 03:05:00,
2013-03-16 23:10:00,60.3,53.8,29.83,SSW,196,0.0,0.0,79,0.00,,,0.00,Wunderground v.1.15,2013-03-17 03:10:00,
2013-03-16 23:20:00,60.3,53.8,29.83,SSW,196,0.0,0.0,79,0.00,,,0.00,Wunderground v.1.15,2013-03-17 03:20:00,
2013-03-16 23:25:00,60.3,53.4,29.83,SSW,196,0.0,0.0,78,0.00,,,0.00,Wunderground v.1.15,2013-03-17 03:25:00,
2013-03-16 23:30:00,60.2,53.3,29.83,SSW,196,0.0,0.0,78,0.00,,,0.00,Wunderground v.1.15,2013-03-17 03:30:00,
2013-03-16 23:35:00,60.2,53.3,29.83,SSW,196,0.0,0.0,78,0.00,,,0.00,Wunderground v.1.15,2013-03-17 03:35:00,
2013-03-16 23:40:00,60.1,53.2,29.83,SSW,196,0.0,0.0,78,0.00,,,0.00,Wunderground v.1.15,2013-03-17 03:40:00,
2013-03-16 23:45:00,60.0,53.1,29.83,SSW,196,0.0,0.0,78,0.00,,,0.00,Wunderground v.1.15,2013-03-17 03:45:00,
2013-03-16 23:50:00,59.8,52.9,29.84,SSW,196,0.0,0.0,78,0.00,,,0.00,Wunderground v.1.15,2013-03-17 03:50:00,
2013-03-16 23:55:00,59.8,52.9,29.84,SSW,196,0.0,0.0,78,0.00,,,0.00,Wunderground v.1.15,2013-03-17 03:55:00,